{"data":{"norad_id":42917,"intl_designator":"2017-048A","name":"QZS-3 (QZSS/PRN 199)","alt_names":[],"object_type":"PAYLOAD","status":"ACTIVE","operator":null,"country":"JPN","launch_date":"2017-08-19","launch_site_code":"TANSC","launch_vehicle":null,"mission":null,"orbit_class":"UNKNOWN","rcs_meters":null,"size_class":null,"mass_kg":null,"dimensions":null,"purposes":["comms","nav"],"wikipedia_slug":null,"has_3d_model":false,"image_url":null,"decayed_at":null,"tle_current":{"epoch":"2026-09-20T00:25:08.468832Z","epoch_age_seconds":56170,"freshness":"FRESH","line1":"1 42917U 17048A   26263.01745913 -.00000352  00000+0  00000+0 0  9991","line2":"2 42917   0.0592 145.8397 0001649   9.6300 336.8036  1.00271429 33210","mean_motion":1.00271429,"eccentricity":0.0001649,"inclination_deg":0.0592,"raan_deg":145.8397,"arg_perigee_deg":9.63,"mean_anomaly_deg":336.8036,"bstar":0,"rev_number":3321,"period_min":1436.1020026951,"perigee_km":35779.741780452,"apogee_km":35793.647741967,"semimajor_km":42164.831761209,"source":"CELESTRAK","updated_at":"2026-09-20T09:00:46.837706Z"}}}